Munising, MI

12:44 PM EST on December 09, 2016 (GMT -0500)
Munising

Weather History for KP53 - April, 2013

Change the Weather History Date:

Thursday, April 11, 2013

  Actual Average (KISQ) Record (KISQ)
Temperature  
Mean Temperature 32 °F -  
Max Temperature 36 °F 44 °F 63 °F (1955)
Min Temperature 30 °F 25 °F 11 °F (1973)
Degree Days  
Heating Degree Days 32    
Moisture  
Dew Point 17 °F    
Average Humidity 54    
Maximum Humidity 79    
Minimum Humidity 37    
Precipitation  
Precipitation 0.04 in - - ()
Sea Level Pressure  
Sea Level Pressure 30.07 in    
Wind  
Wind Speed 9 mph (ENE)    
Max Wind Speed 15 mph    
Max Gust Speed 23 mph    
Averages and records for this station are not official NWS values.
T = Trace of Precipitation, MM = Missing Value Source: NWS Daily Summary

Daily Weather History Graph

Daily Weather History Graph

Search for Another Location

Airport or City:

Trip Planner

Search our weather history database for the weather conditions in past years. The results will help you decide how hot, cold, wet, or windy it might be!

Date:

Astronomy

Apr. 11, 2013 Rise Set
Actual Time 7:06 AM EDT 8:29 PM EDT
Civil Twilight 6:35 AM EDT 9:00 PM EDT
Nautical Twilight 5:57 AM EDT 9:38 PM EDT
Astronomical Twilight 5:17 AM EDT 10:18 PM EDT
Moon 7:33 AM EDT (4/11) 10:09 PM EDT (4/11)
Length of Visible Light 14h 25m
Length of Day
13h 22m
New Moon, 2% of the Moon is Illuminated
Apr 11
New Moon
Apr 18
First Quarter
Apr 25
Full
May 2
Last Quarter
May 9
New

Hourly Weather History & Observations

Time (EDT) Temp. Windchill Dew Point Humidity Pressure Visibility Wind Dir Wind Speed Gust Speed Precip Events Conditions
12:56 AM 32.0 °F 24.2 °F 24.1 °F 73% 30.17 in - NNE 9.2 mph - N/A   Unknown
1:56 AM 32.0 °F 25.6 °F 23.0 °F 69% 30.15 in - NNE 6.9 mph - N/A   Unknown
2:56 AM 30.9 °F 23.5 °F 23.0 °F 72% 30.13 in - North 8.1 mph - N/A   Unknown
3:56 AM 32.0 °F 26.4 °F 21.9 °F 66% 30.14 in - NNE 5.8 mph - N/A   Unknown
4:56 AM 30.9 °F 23.5 °F 21.9 °F 69% 30.14 in - NNE 8.1 mph - N/A   Unknown
5:56 AM 30.9 °F 27.5 °F 19.9 °F 64% 30.12 in - NE 3.5 mph - N/A   Unknown
6:56 AM 30.9 °F 25.2 °F 18.0 °F 59% 30.13 in - NE 5.8 mph - N/A   Unknown
7:56 AM 30.0 °F 25.2 °F 17.1 °F 59% 30.14 in - East 4.6 mph - N/A   Unknown
8:56 AM 30.0 °F 21.1 °F 17.1 °F 59% 30.14 in - East 10.4 mph 17.3 mph N/A   Unknown
9:56 AM 30.9 °F 22.8 °F 12.9 °F 47% 30.11 in - East 9.2 mph - N/A   Unknown
10:56 AM 32.0 °F 23.6 °F 10.9 °F 42% 30.12 in - East 10.4 mph - N/A   Unknown
11:56 AM 32.0 °F 22.5 °F 14.0 °F 48% 30.07 in - ENE 12.7 mph - N/A   Unknown
1:56 PM 34.0 °F 26.0 °F 12.0 °F 40% 30.05 in - East 10.4 mph - N/A   Unknown
2:56 PM 34.0 °F 24.2 °F 12.0 °F 40% 30.05 in - ESE 15.0 mph 23.0 mph N/A   Unknown
3:56 PM 35.1 °F 27.9 °F 10.9 °F 37% 30.04 in - East 9.2 mph 21.9 mph N/A   Unknown
4:56 PM 35.1 °F 27.9 °F 12.9 °F 40% 30.03 in - East 9.2 mph - N/A   Unknown
5:56 PM 35.1 °F 26.4 °F 14.0 °F 42% 29.99 in - East 12.7 mph - N/A   Unknown
6:56 PM 35.1 °F 25.9 °F 14.0 °F 42% 30.01 in - East 13.8 mph 21.9 mph N/A   Unknown
7:56 PM 35.1 °F 27.9 °F 14.0 °F 42% 29.96 in - East 9.2 mph - N/A   Unknown
8:56 PM 35.1 °F 27.9 °F 14.0 °F 42% 29.97 in - East 9.2 mph 16.1 mph N/A   Unknown
9:56 PM 35.1 °F 30.1 °F 15.1 °F 44% 29.98 in - East 5.8 mph - N/A   Unknown
10:56 PM 30.0 °F 19.1 °F 23.0 °F 75% 29.98 in - East 15.0 mph 20.7 mph N/A   Unknown
11:56 PM 30.0 °F 21.7 °F 24.1 °F 79% 29.90 in - East 9.2 mph 17.3 mph 0.04 in   Unknown